Weather History for Prairie Du Chien, WI

Change the Weather History Date:

Tuesday, July 23, 2013

  Actual Average Record
Temperature  
Mean Temperature 67 °F -  
Max Temperature 76 °F 84 °F 101 °F (1965)
Min Temperature 58 °F 62 °F 50 °F (1985)
Cooling Degree Days 2    
Growing Degree Days 17 (Base 50)    
Moisture  
Dew Point 54 °F    
Average Humidity 59    
Maximum Humidity 83    
Minimum Humidity 38    
Precipitation  
Precipitation 0.00 in - - ()
Sea Level Pressure  
Sea Level Pressure 29.90 in    
Wind  
Wind Speed 6 mph (NNW)    
Max Wind Speed 20 mph    
Max Gust Speed 28 mph    
Visibility 10 miles    
Events      
Averages and records for this station are not official NWS values.
T = Trace of Precipitation, MM = Missing Value Source: NWS Daily Summary

Daily Weather History Graph

Daily Weather History Graph

Search for Another Location

Airport:

Trip Planner

Search our weather history database for the weather conditions in past years. The results will help you decide how hot, cold, wet, or windy it might be!

Date:

Astronomy

Jul. 23, 2013 Rise Set
Actual Time 5:46 AM CDT 8:34 PM CDT
Civil Twilight 5:13 AM CDT 9:08 PM CDT
Nautical Twilight 4:31 AM CDT 9:49 PM CDT
Astronomical Twilight 3:42 AM CDT 10:38 PM CDT
Moon 8:58 PM CDT (7/23) 6:58 AM CDT (7/23)
Length of Visible Light 15h 54m
Length of Day
14h 48m
Full, 99% of the Moon is Illuminated
Jul 23
Full
Jul 29
Last Quarter
Aug 6
New
Aug 14
First Quarter
Aug 20
Full

Hourly Weather History & Observations

Time (CDT) Temp. Dew Point Humidity Pressure Visibility Wind Dir Wind Speed Gust Speed Precip Events Conditions
12:15 AM 71.6 °F 59.0 °F 64% 29.77 in 10.0 mi Calm Calm - N/A   Mostly Cloudy
12:35 AM 71.6 °F 59.7 °F 66% 29.77 in 10.0 mi West 4.6 mph - N/A   Overcast
12:55 AM 70.7 °F 59.9 °F 69% 29.78 in 10.0 mi West 3.5 mph - N/A   Mostly Cloudy
1:15 AM 69.8 °F 60.3 °F 72% 29.77 in 10.0 mi WSW 4.6 mph - N/A   Scattered Clouds
1:35 AM 69.4 °F 61.2 °F 75% 29.78 in 10.0 mi West 4.6 mph - N/A   Scattered Clouds
1:55 AM 69.8 °F 61.9 °F 76% 29.78 in 10.0 mi West 3.5 mph - N/A   Mostly Cloudy
2:15 AM 69.4 °F 62.4 °F 78% 29.78 in 10.0 mi Calm Calm - N/A   Mostly Cloudy
2:35 AM 70.2 °F 63.0 °F 78% 29.79 in 10.0 mi NW 4.6 mph - N/A   Scattered Clouds
2:55 AM 70.3 °F 62.6 °F 76% 29.79 in 10.0 mi NNW 10.4 mph - N/A   Clear
3:15 AM 70.3 °F 61.5 °F 74% 29.79 in 10.0 mi NW 9.2 mph - N/A   Clear
3:35 AM 69.8 °F 60.6 °F 73% 29.79 in 10.0 mi NNW 6.9 mph - N/A   Clear
3:55 AM 68.7 °F 60.3 °F 74% 29.80 in 10.0 mi WNW 4.6 mph - N/A   Clear
4:15 AM 67.6 °F 59.7 °F 76% 29.81 in 10.0 mi NW 6.9 mph - N/A   Clear
4:35 AM 67.5 °F 59.0 °F 74% 29.81 in 10.0 mi NW 6.9 mph - N/A   Scattered Clouds
4:55 AM 66.7 °F 59.0 °F 76% 29.81 in 10.0 mi NW 5.8 mph - N/A   Scattered Clouds
5:15 AM 66.4 °F 58.5 °F 76% 29.81 in 10.0 mi WNW 4.6 mph - N/A   Clear
5:35 AM 65.8 °F 57.4 °F 74% 29.82 in 10.0 mi NW 4.6 mph - N/A   Clear
5:55 AM 66.2 °F 56.7 °F 71% 29.84 in 10.0 mi NW 9.2 mph - N/A   Clear
6:15 AM 65.8 °F 56.3 °F 71% 29.85 in 10.0 mi NW 9.2 mph - N/A   Clear
6:35 AM 65.7 °F 56.3 °F 72% 29.85 in 10.0 mi NNW 8.1 mph - N/A   Clear
6:55 AM 65.7 °F 56.3 °F 72% 29.86 in 10.0 mi NNW 5.8 mph - N/A   Clear
7:15 AM 66.4 °F 56.5 °F 70% 29.88 in 10.0 mi NNW 4.6 mph - N/A   Clear
7:35 AM 67.1 °F 56.5 °F 69% 29.89 in 10.0 mi NNW 6.9 mph - N/A   Clear
7:55 AM 67.3 °F 55.8 °F 66% 29.89 in 10.0 mi North 6.9 mph - N/A   Clear
8:15 AM 68.0 °F 55.2 °F 64% 29.89 in 10.0 mi NW 17.3 mph 27.6 mph N/A   Clear
8:35 AM 68.4 °F 54.9 °F 62% 29.89 in 10.0 mi NNW 19.6 mph 23.0 mph N/A   Clear
8:55 AM 69.1 °F 54.7 °F 60% 29.88 in 10.0 mi North 8.1 mph 24.2 mph N/A   Clear
9:15 AM 70.0 °F 52.9 °F 55% 29.89 in 10.0 mi North 12.7 mph 19.6 mph N/A   Clear
9:35 AM 70.5 °F 53.6 °F 55% 29.91 in 10.0 mi NNW 6.9 mph - N/A   Clear
9:55 AM 70.7 °F 51.8 °F 51% 29.91 in 10.0 mi NNW 10.4 mph 19.6 mph N/A   Scattered Clouds
10:15 AM 70.9 °F 50.7 °F 49% 29.91 in 10.0 mi NNW 12.7 mph 18.4 mph N/A   Clear
10:35 AM 71.6 °F 52.0 °F 50% 29.92 in 10.0 mi NNW 8.1 mph - N/A   Clear
10:55 AM 72.7 °F 51.6 °F 47% 29.92 in 10.0 mi North 12.7 mph - N/A   Scattered Clouds
11:15 AM 72.7 °F 48.6 °F 42% 29.92 in 10.0 mi North 11.5 mph 20.7 mph N/A   Scattered Clouds
11:35 AM 73.6 °F 49.6 °F 43% 29.93 in 10.0 mi North 10.4 mph 18.4 mph N/A   Clear
11:55 AM 72.1 °F 50.5 °F 46% 29.93 in 10.0 mi NNW 10.4 mph 17.3 mph N/A   Clear
12:15 PM 73.4 °F 50.5 °F 45% 29.93 in 10.0 mi NNW 10.4 mph 16.1 mph N/A   Clear
12:35 PM 73.9 °F 50.7 °F 44% 29.93 in 10.0 mi NNW 9.2 mph 16.1 mph N/A   Clear
12:55 PM 75.0 °F 51.1 °F 43% 29.93 in 10.0 mi NNW 10.4 mph 20.7 mph N/A   Clear
1:15 PM 75.6 °F 50.4 °F 41% 29.93 in 10.0 mi North 12.7 mph 18.4 mph N/A   Clear
1:35 PM 75.2 °F 49.8 °F 41% 29.93 in 10.0 mi North 10.4 mph - N/A   Clear
1:55 PM 75.0 °F 50.2 °F 42% 29.93 in 10.0 mi NW 10.4 mph 17.3 mph N/A   Clear
2:15 PM 75.2 °F 49.5 °F 40% 29.93 in 10.0 mi North 12.7 mph 16.1 mph N/A   Clear
2:35 PM 75.4 °F 48.9 °F 39% 29.93 in 10.0 mi NNW 12.7 mph 17.3 mph N/A   Clear
3:15 PM 75.4 °F 48.2 °F 38% 29.93 in 10.0 mi North 8.1 mph - N/A   Clear
3:35 PM 75.6 °F 48.7 °F 39% 29.94 in 10.0 mi North 10.4 mph - N/A   Clear
3:55 PM 75.7 °F 49.3 °F 39% 29.93 in 10.0 mi NNW 10.4 mph - N/A   Clear
4:15 PM 75.0 °F 49.1 °F 40% 29.93 in 10.0 mi NNW 10.4 mph - N/A   Clear
4:35 PM 75.9 °F 49.8 °F 40% 29.92 in 10.0 mi NNE 9.2 mph - N/A   Clear
4:55 PM 73.8 °F 51.1 °F 45% 29.92 in 10.0 mi NNE 10.4 mph - N/A   Clear
5:15 PM 73.9 °F 51.4 °F 45% 29.92 in 10.0 mi NNW 11.5 mph - N/A   Clear
5:35 PM 73.6 °F 51.4 °F 46% 29.92 in 10.0 mi North 8.1 mph - N/A   Clear
5:55 PM 73.0 °F 51.6 °F 47% 29.91 in 10.0 mi NNE 8.1 mph - N/A   Clear
6:15 PM 73.8 °F 51.1 °F 45% 29.91 in 10.0 mi NNE 11.5 mph 17.3 mph N/A   Clear
6:35 PM 73.6 °F 50.9 °F 45% 29.92 in 10.0 mi North 9.2 mph - N/A   Clear
6:55 PM 72.7 °F 51.1 °F 47% 29.93 in 10.0 mi NNE 5.8 mph - N/A   Clear
7:15 PM 72.7 °F 51.8 °F 48% 29.93 in 10.0 mi North 5.8 mph - N/A   Clear
7:35 PM 71.8 °F 52.0 °F 50% 29.94 in 10.0 mi NNE 5.8 mph - N/A   Clear
7:55 PM 70.9 °F 52.9 °F 53% 29.95 in 10.0 mi NNE 3.5 mph - N/A   Clear
8:15 PM 70.0 °F 52.5 °F 54% 29.96 in 10.0 mi North 5.8 mph - N/A   Clear
8:35 PM 69.1 °F 51.8 °F 54% 29.96 in 10.0 mi North 4.6 mph - N/A   Clear
8:55 PM 66.7 °F 53.2 °F 62% 29.97 in 10.0 mi NNE 4.6 mph - N/A   Clear
9:15 PM 65.8 °F 52.9 °F 63% 29.98 in 10.0 mi NNE 4.6 mph - N/A   Clear
9:35 PM 64.9 °F 53.1 °F 65% 29.99 in 10.0 mi NNE 5.8 mph - N/A   Clear
9:55 PM 64.6 °F 53.1 °F 66% 29.99 in 10.0 mi NE 4.6 mph - N/A   Clear
10:15 PM 62.8 °F 53.6 °F 72% 30.00 in 10.0 mi NNE 3.5 mph - N/A   Clear
10:35 PM 61.0 °F 54.5 °F 79% 30.00 in 10.0 mi Calm Calm - N/A   Clear
10:55 PM 61.7 °F 54.0 °F 76% 30.00 in 10.0 mi Calm Calm - N/A   Clear
11:15 PM 59.2 °F 54.0 °F 83% 30.00 in 10.0 mi East 4.6 mph - N/A   Clear
11:35 PM 59.9 °F 54.0 °F 81% 30.01 in 10.0 mi Calm Calm - N/A   Clear
11:55 PM 58.6 °F 53.6 °F 83% 30.01 in 10.0 mi East 3.5 mph - N/A   Clear